User: anonymous   Login
Location: Young's Pond
(41.2695°N, 72.7766°W)
Time: 12:30:58
(UTC-04:00)
Language:

Spot 4 - Orbit

View from above orbital plane
View from above orbital plane
View from above satellite
View from above satellite

Ground track
Ground track

The orbit data is extracted from the following two-line orbital elements,

1 25260U 98017A   17262.92584557 -.00000051 +00000-0 -12551-5 0  9990
2 25260 098.3451 344.9773 0012686 349.1397 010.9538 14.53494026015610
Epoch (UTC): 19 September 2017 22:13:13
Eccentricity: 0.0012686
inclination: 98.3451°
perigee height: 705 km
apogee height: 723 km
right ascension of ascending node: 344.9773°
argument of perigee: 349.1397°
revolutions per day: 14.53494026
mean anomaly at epoch: 10.9538°
orbit number at epoch: 1561

The dashed part of the orbit path shows where the satellite is in the earth's shadow,  

DLR